Time,TemperatureF,DewpointF,PressureIn,WindDirection,WindDirectionDegrees,WindSpeedMPH,WindSpeedGustMPH,Humidity,HourlyPrecipIn,Conditions,Clouds,dailyrainin,SoftwareType,DateUTC
2015-02-28 00:00:00,50.7,46.7,29.76,South,185,2.0,8.0,86,0.01,,---,0.02,VWS V13.01,2015-02-28 08:00:00,
2015-02-28 00:05:00,50.8,46.8,29.76,South,171,6.0,8.0,86,0.00,,---,0.00,VWS V13.01,2015-02-28 08:05:00,
2015-02-28 00:10:00,51.0,46.7,29.76,SW,223,5.0,8.0,85,0.00,,---,0.00,VWS V13.01,2015-02-28 08:10:00,
2015-02-28 00:15:00,51.2,46.8,29.76,SW,221,2.0,9.0,85,0.00,,---,0.00,VWS V13.01,2015-02-28 08:15:00,
2015-02-28 00:20:00,51.3,47.0,29.76,SW,233,3.0,9.0,85,0.00,,---,0.00,VWS V13.01,2015-02-28 08:20:00,
2015-02-28 00:25:00,51.4,47.0,29.76,SW,234,4.0,10.0,85,0.00,,---,0.00,VWS V13.01,2015-02-28 08:25:00,
2015-02-28 00:30:00,51.5,47.2,29.76,SSW,202,3.0,10.0,85,0.00,,---,0.00,VWS V13.01,2015-02-28 08:30:00,
2015-02-28 00:35:00,51.6,47.2,29.76,SW,216,5.0,5.0,85,0.00,,---,0.00,VWS V13.01,2015-02-28 08:35:00,
2015-02-28 00:40:00,51.5,46.8,29.76,SSW,213,2.0,7.0,84,0.00,,---,0.00,VWS V13.01,2015-02-28 08:40:00,
2015-02-28 00:45:00,51.3,47.0,29.76,SW,218,3.0,7.0,85,0.00,,---,0.00,VWS V13.01,2015-02-28 08:45:00,
2015-02-28 00:50:00,51.4,47.4,29.76,SW,234,4.0,9.0,86,0.00,,---,0.00,VWS V13.01,2015-02-28 08:50:00,
2015-02-28 00:55:00,51.2,47.2,29.76,SW,222,2.0,14.0,86,0.00,,---,0.00,VWS V13.01,2015-02-28 08:55:00,
2015-02-28 01:00:00,51.0,47.0,29.76,SW,217,3.0,14.0,86,0.00,,---,0.00,VWS V13.01,2015-02-28 09:00:00,
2015-02-28 01:05:00,51.0,47.0,29.75,WSW,243,2.0,4.0,86,0.00,,---,0.00,VWS V13.01,2015-02-28 09:05:00,
2015-02-28 01:10:00,50.9,46.9,29.75,SW,218,2.0,8.0,86,0.00,,---,0.00,VWS V13.01,2015-02-28 09:10:00,
2015-02-28 01:15:00,50.8,46.8,29.75,West,262,2.0,9.0,86,0.00,,---,0.00,VWS V13.01,2015-02-28 09:15:00,
2015-02-28 01:20:00,51.0,47.0,29.76,SSW,192,3.0,9.0,86,0.00,,---,0.00,VWS V13.01,2015-02-28 09:20:00,
2015-02-28 01:25:00,51.1,47.4,29.76,West,269,3.0,4.0,87,0.00,,---,0.00,VWS V13.01,2015-02-28 09:25:00,
2015-02-28 01:30:00,51.3,47.6,29.76,SSW,209,4.0,8.0,87,0.00,,---,0.00,VWS V13.01,2015-02-28 09:30:00,
2015-02-28 01:35:00,51.4,47.7,29.76,WSW,251,3.0,7.0,87,0.00,,---,0.00,VWS V13.01,2015-02-28 09:35:00,
2015-02-28 01:40:00,51.3,47.6,29.75,WSW,246,1.0,10.0,87,0.00,,---,0.00,VWS V13.01,2015-02-28 09:40:00,
2015-02-28 01:45:00,51.3,47.3,29.76,WNW,294,3.0,7.0,86,0.00,,---,0.00,VWS V13.01,2015-02-28 09:45:00,
2015-02-28 01:50:00,51.3,47.3,29.76,WNW,295,1.0,8.0,86,0.00,,---,0.00,VWS V13.01,2015-02-28 09:50:00,
2015-02-28 01:55:00,51.5,47.5,29.76,West,265,3.0,11.0,86,0.00,,---,0.00,VWS V13.01,2015-02-28 09:55:00,
2015-02-28 02:00:00,51.6,47.2,29.75,West,268,7.0,11.0,85,0.00,,---,0.00,VWS V13.01,2015-02-28 10:00:00,
2015-02-28 02:05:00,51.7,47.3,29.75,West,278,1.0,4.0,85,0.00,,---,0.00,VWS V13.01,2015-02-28 10:05:00,
2015-02-28 02:10:00,51.6,47.2,29.76,West,266,2.0,9.0,85,0.00,,---,0.00,VWS V13.01,2015-02-28 10:10:00,
2015-02-28 02:15:00,51.6,46.9,29.76,WSW,250,3.0,5.0,84,0.00,,---,0.00,VWS V13.01,2015-02-28 10:15:00,
2015-02-28 02:20:00,51.7,47.0,29.75,WNW,292,0.0,12.0,84,0.00,,---,0.00,VWS V13.01,2015-02-28 10:20:00,
2015-02-28 02:25:00,51.7,47.0,29.75,SW,235,1.0,7.0,84,0.00,,---,0.00,VWS V13.01,2015-02-28 10:25:00,
2015-02-28 02:31:00,51.7,47.0,29.75,SSW,203,1.0,7.0,84,0.00,,---,0.00,VWS V13.01,2015-02-28 10:31:00,
2015-02-28 02:36:00,51.8,47.8,29.75,WSW,248,4.0,8.0,86,0.00,,---,0.00,VWS V13.01,2015-02-28 10:36:00,
2015-02-28 02:41:00,51.8,47.8,29.75,SW,215,5.0,8.0,86,0.00,,---,0.00,VWS V13.01,2015-02-28 10:41:00,
2015-02-28 02:46:00,51.7,47.7,29.75,WSW,250,2.0,9.0,86,0.00,,---,0.00,VWS V13.01,2015-02-28 10:46:00,
2015-02-28 02:51:00,51.7,47.3,29.75,WNW,300,4.0,9.0,85,0.00,,---,0.00,VWS V13.01,2015-02-28 10:51:00,
2015-02-28 02:56:00,51.5,47.2,29.75,SW,221,1.0,7.0,85,0.00,,---,0.00,VWS V13.01,2015-02-28 10:56:00,
2015-02-28 03:01:00,51.5,47.2,29.74,WSW,239,1.0,7.0,85,0.00,,---,0.00,VWS V13.01,2015-02-28 11:01:00,
2015-02-28 03:06:00,51.5,47.5,29.75,SSW,209,2.0,8.0,86,0.00,,---,0.00,VWS V13.01,2015-02-28 11:06:00,
2015-02-28 03:11:00,51.5,47.5,29.74,WSW,242,3.0,8.0,86,0.00,,---,0.00,VWS V13.01,2015-02-28 11:11:00,
2015-02-28 03:16:00,51.5,47.2,29.74,West,264,1.0,7.0,85,0.00,,---,0.00,VWS V13.01,2015-02-28 11:16:00,
2015-02-28 03:21:00,51.5,47.2,29.74,WSW,256,4.0,7.0,85,0.00,,---,0.00,VWS V13.01,2015-02-28 11:21:00,
2015-02-28 03:26:00,51.5,47.2,29.74,WSW,240,4.0,8.0,85,0.00,,---,0.00,VWS V13.01,2015-02-28 11:26:00,
2015-02-28 03:31:00,51.5,47.2,29.74,SSW,199,4.0,8.0,85,0.00,,---,0.00,VWS V13.01,2015-02-28 11:31:00,
2015-02-28 03:36:00,51.5,47.2,29.73,WNW,285,1.0,8.0,85,0.00,,---,0.00,VWS V13.01,2015-02-28 11:36:00,
2015-02-28 03:41:00,51.5,47.2,29.74,SW,226,2.0,8.0,85,0.00,,---,0.00,VWS V13.01,2015-02-28 11:41:00,
2015-02-28 03:46:00,51.4,47.4,29.73,SW,219,2.0,6.0,86,0.00,,---,0.00,VWS V13.01,2015-02-28 11:46:00,
2015-02-28 03:51:00,51.6,47.6,29.73,SW,215,3.0,6.0,86,0.00,,---,0.00,VWS V13.01,2015-02-28 11:51:00,
2015-02-28 03:56:00,51.7,47.7,29.73,SSW,204,2.0,5.0,86,0.00,,---,0.00,VWS V13.01,2015-02-28 11:56:00,
2015-02-28 04:01:00,51.7,47.7,29.73,SSW,200,0.0,7.0,86,0.00,,---,0.00,VWS V13.01,2015-02-28 12:01:00,
2015-02-28 04:06:00,51.5,47.2,29.73,WNW,290,2.0,7.0,85,0.00,,---,0.00,VWS V13.01,2015-02-28 12:06:00,
2015-02-28 04:11:00,51.2,47.2,29.73,SSW,193,3.0,7.0,86,0.00,,---,0.00,VWS V13.01,2015-02-28 12:11:00,
2015-02-28 04:16:00,50.9,46.6,29.73,West,265,3.0,5.0,85,0.00,,---,0.00,VWS V13.01,2015-02-28 12:16:00,
2015-02-28 04:21:00,50.8,46.5,29.73,SW,228,3.0,6.0,85,0.00,,---,0.00,VWS V13.01,2015-02-28 12:21:00,
2015-02-28 04:26:00,50.9,46.9,29.73,SW,233,2.0,6.0,86,0.00,,---,0.00,VWS V13.01,2015-02-28 12:26:00,
2015-02-28 04:31:00,51.0,47.0,29.74,SW,226,1.0,6.0,86,0.00,,---,0.00,VWS V13.01,2015-02-28 12:31:00,
2015-02-28 04:36:00,50.9,46.9,29.73,SW,225,1.0,4.0,86,0.00,,---,0.00,VWS V13.01,2015-02-28 12:36:00,
2015-02-28 04:41:00,50.9,46.9,29.73,SSW,212,3.0,4.0,86,0.00,,---,0.00,VWS V13.01,2015-02-28 12:41:00,
2015-02-28 04:46:00,51.0,47.0,29.74,NW,304,2.0,6.0,86,0.00,,---,0.00,VWS V13.01,2015-02-28 12:46:00,
2015-02-28 04:51:00,51.2,47.2,29.74,WSW,254,2.0,7.0,86,0.00,,---,0.00,VWS V13.01,2015-02-28 12:51:00,
2015-02-28 04:56:00,51.4,47.4,29.74,WNW,288,3.0,5.0,86,0.00,,---,0.00,VWS V13.01,2015-02-28 12:56:00,
2015-02-28 05:01:00,51.4,47.4,29.74,NW,306,4.0,7.0,86,0.00,,---,0.00,VWS V13.01,2015-02-28 13:01:00,
2015-02-28 05:06:00,51.3,47.6,29.74,SW,236,1.0,5.0,87,0.00,,---,0.00,VWS V13.01,2015-02-28 13:06:00,
2015-02-28 05:11:00,51.1,47.7,29.74,WNW,300,1.0,7.0,88,0.00,,---,0.00,VWS V13.01,2015-02-28 13:11:00,
2015-02-28 05:16:00,51.0,47.6,29.74,WNW,302,0.0,6.0,88,0.00,,---,0.00,VWS V13.01,2015-02-28 13:16:00,
2015-02-28 05:21:00,50.8,47.4,29.74,WNW,302,2.0,6.0,88,0.00,,---,0.00,VWS V13.01,2015-02-28 13:21:00,
2015-02-28 05:26:00,50.6,47.2,29.74,West,265,2.0,8.0,88,0.00,,---,0.00,VWS V13.01,2015-02-28 13:26:00,
2015-02-28 05:31:00,50.4,47.0,29.74,West,269,2.0,8.0,88,0.00,,---,0.00,VWS V13.01,2015-02-28 13:31:00,
2015-02-28 05:36:00,50.3,46.9,29.74,West,271,0.0,5.0,88,0.00,,---,0.00,VWS V13.01,2015-02-28 13:36:00,
2015-02-28 05:41:00,50.3,46.9,29.74,West,271,2.0,5.0,88,0.00,,---,0.00,VWS V13.01,2015-02-28 13:41:00,
2015-02-28 05:46:00,50.4,47.0,29.74,WNW,282,0.0,4.0,88,0.00,,---,0.00,VWS V13.01,2015-02-28 13:46:00,
2015-02-28 05:51:00,50.5,47.1,29.74,West,280,3.0,4.0,88,0.00,,---,0.00,VWS V13.01,2015-02-28 13:51:00,
2015-02-28 05:56:00,50.5,47.1,29.74,WNW,302,2.0,6.0,88,0.00,,---,0.00,VWS V13.01,2015-02-28 13:56:00,
2015-02-28 06:01:00,50.6,46.9,29.75,WNW,301,1.0,6.0,87,0.00,,---,0.00,VWS V13.01,2015-02-28 14:01:00,
2015-02-28 06:06:00,50.5,47.1,29.75,SW,218,2.0,3.0,88,0.00,,---,0.00,VWS V13.01,2015-02-28 14:06:00,
2015-02-28 06:11:00,50.2,46.8,29.75,WSW,246,1.0,3.0,88,0.01,,---,0.01,VWS V13.01,2015-02-28 14:11:00,
2015-02-28 06:16:00,49.9,46.8,29.75,West,261,0.0,2.0,89,0.01,,---,0.01,VWS V13.01,2015-02-28 14:16:00,
2015-02-28 06:21:00,49.8,46.7,29.75,SW,221,0.0,3.0,89,0.01,,---,0.01,VWS V13.01,2015-02-28 14:21:00,
2015-02-28 06:26:00,49.8,46.7,29.75,WNW,285,2.0,4.0,89,0.01,,---,0.01,VWS V13.01,2015-02-28 14:26:00,
2015-02-28 06:31:00,49.8,46.4,29.75,SSW,213,0.0,4.0,88,0.01,,---,0.01,VWS V13.01,2015-02-28 14:31:00,
2015-02-28 06:36:00,49.7,46.3,29.75,WNW,293,0.0,3.0,88,0.01,,---,0.01,VWS V13.01,2015-02-28 14:36:00,
2015-02-28 06:41:00,49.8,46.4,29.75,WNW,294,2.0,3.0,88,0.01,,---,0.01,VWS V13.01,2015-02-28 14:41:00,
2015-02-28 06:46:00,50.0,46.6,29.75,WNW,298,0.0,3.0,88,0.01,,---,0.01,VWS V13.01,2015-02-28 14:46:00,
2015-02-28 06:51:00,50.2,46.8,29.75,NW,311,1.0,3.0,88,0.01,,---,0.01,VWS V13.01,2015-02-28 14:51:00,
2015-02-28 06:56:00,50.3,46.9,29.75,NW,309,0.0,3.0,88,0.01,,---,0.01,VWS V13.01,2015-02-28 14:56:00,
2015-02-28 07:01:00,50.4,47.0,29.75,WNW,298,2.0,7.0,88,0.01,,---,0.01,VWS V13.01,2015-02-28 15:01:00,
2015-02-28 07:06:00,50.6,46.9,29.75,WNW,298,1.0,7.0,87,0.01,,---,0.01,VWS V13.01,2015-02-28 15:06:00,
2015-02-28 07:11:00,50.7,46.7,29.75,WNW,298,2.0,7.0,86,0.01,,---,0.01,VWS V13.01,2015-02-28 15:11:00,
2015-02-28 07:16:00,51.0,46.7,29.75,WNW,291,3.0,7.0,85,0.00,,---,0.01,VWS V13.01,2015-02-28 15:16:00,
2015-02-28 07:21:00,51.3,47.0,29.76,NW,307,1.0,7.0,85,0.00,,---,0.01,VWS V13.01,2015-02-28 15:21:00,
2015-02-28 07:26:00,51.5,46.8,29.75,NW,311,3.0,8.0,84,0.00,,---,0.01,VWS V13.01,2015-02-28 15:26:00,
2015-02-28 07:31:00,51.7,47.0,29.76,West,279,2.0,8.0,84,0.00,,---,0.01,VWS V13.01,2015-02-28 15:31:00,
2015-02-28 07:36:00,51.9,47.2,29.76,NW,305,3.0,3.0,84,0.00,,---,0.01,VWS V13.01,2015-02-28 15:36:00,
2015-02-28 07:41:00,52.1,47.4,29.76,WSW,242,1.0,4.0,84,0.00,,---,0.01,VWS V13.01,2015-02-28 15:41:00,
2015-02-28 07:46:00,52.3,47.9,29.76,West,268,3.0,6.0,85,0.00,,---,0.01,VWS V13.01,2015-02-28 15:46:00,
2015-02-28 07:51:00,52.3,48.2,29.76,SW,218,1.0,6.0,86,0.00,,---,0.01,VWS V13.01,2015-02-28 15:51:00,
2015-02-28 07:56:00,52.2,48.2,29.76,SW,232,1.0,4.0,86,0.00,,---,0.01,VWS V13.01,2015-02-28 15:56:00,
2015-02-28 08:01:00,52.1,47.7,29.76,WSW,237,0.0,4.0,85,0.00,,---,0.01,VWS V13.01,2015-02-28 16:01:00,
2015-02-28 08:06:00,52.0,47.6,29.76,WNW,300,0.0,5.0,85,0.00,,---,0.01,VWS V13.01,2015-02-28 16:06:00,
2015-02-28 08:11:00,52.0,47.6,29.77,WNW,300,1.0,5.0,85,0.00,,---,0.01,VWS V13.01,2015-02-28 16:11:00,
2015-02-28 08:16:00,52.3,47.9,29.77,WNW,284,1.0,1.0,85,0.00,,---,0.01,VWS V13.01,2015-02-28 16:16:00,
2015-02-28 08:21:00,52.9,48.5,29.77,SW,234,1.0,5.0,85,0.00,,---,0.01,VWS V13.01,2015-02-28 16:21:00,
2015-02-28 08:26:00,53.6,48.9,29.77,WSW,240,1.0,4.0,84,0.00,,---,0.01,VWS V13.01,2015-02-28 16:26:00,
2015-02-28 08:31:00,53.9,48.9,29.77,NW,315,4.0,10.0,83,0.00,,---,0.01,VWS V13.01,2015-02-28 16:31:00,
2015-02-28 08:36:00,53.2,48.2,29.77,NW,321,3.0,7.0,83,0.00,,---,0.01,VWS V13.01,2015-02-28 16:36:00,
2015-02-28 08:41:00,52.8,47.8,29.78,WNW,290,2.0,7.0,83,0.00,,---,0.01,VWS V13.01,2015-02-28 16:41:00,
2015-02-28 08:46:00,52.5,47.8,29.77,NW,310,2.0,4.0,84,0.00,,---,0.01,VWS V13.01,2015-02-28 16:46:00,
2015-02-28 08:51:00,52.3,47.6,29.78,NW,309,1.0,4.0,84,0.00,,---,0.01,VWS V13.01,2015-02-28 16:51:00,
2015-02-28 08:56:00,52.2,47.8,29.78,NNW,340,1.0,4.0,85,0.00,,---,0.01,VWS V13.01,2015-02-28 16:56:00,
2015-02-28 09:01:00,52.3,48.2,29.78,WNW,303,2.0,4.0,86,0.00,,---,0.01,VWS V13.01,2015-02-28 17:01:00,
2015-02-28 09:06:00,53.1,48.7,29.78,NW,311,5.0,7.0,85,0.00,,---,0.01,VWS V13.01,2015-02-28 17:06:00,
2015-02-28 09:11:00,53.6,49.2,29.78,WNW,293,2.0,9.0,85,0.00,,---,0.01,VWS V13.01,2015-02-28 17:11:00,
2015-02-28 09:16:00,53.6,49.2,29.79,West,272,3.0,7.0,85,0.00,,---,0.01,VWS V13.01,2015-02-28 17:16:00,
2015-02-28 09:21:00,53.1,48.7,29.79,NNW,336,2.0,7.0,85,0.01,,---,0.02,VWS V13.01,2015-02-28 17:21:00,
2015-02-28 09:26:00,52.8,49.0,29.79,WNW,282,1.0,4.0,87,0.01,,---,0.02,VWS V13.01,2015-02-28 17:26:00,
2015-02-28 09:31:00,53.0,49.8,29.78,SW,231,1.0,4.0,89,0.01,,---,0.02,VWS V13.01,2015-02-28 17:31:00,
2015-02-28 09:36:00,53.3,50.5,29.78,West,259,0.0,6.0,90,0.01,,---,0.02,VWS V13.01,2015-02-28 17:36:00,
2015-02-28 09:41:00,53.5,50.3,29.79,SW,229,1.0,6.0,89,0.01,,---,0.02,VWS V13.01,2015-02-28 17:41:00,
2015-02-28 09:46:00,53.9,50.7,29.78,West,263,0.0,5.0,89,0.01,,---,0.02,VWS V13.01,2015-02-28 17:46:00,
2015-02-28 09:51:00,54.4,50.6,29.78,West,261,1.0,8.0,87,0.01,,---,0.02,VWS V13.01,2015-02-28 17:51:00,
2015-02-28 09:56:00,54.7,50.0,29.79,West,278,2.0,8.0,84,0.01,,---,0.02,VWS V13.01,2015-02-28 17:56:00,
2015-02-28 10:01:00,54.9,49.8,29.79,WNW,291,5.0,11.0,83,0.01,,---,0.02,VWS V13.01,2015-02-28 18:01:00,
2015-02-28 10:06:00,55.1,50.0,29.79,West,279,2.0,5.0,83,0.01,,---,0.02,VWS V13.01,2015-02-28 18:06:00,
2015-02-28 10:11:00,55.4,50.0,29.79,SW,215,2.0,5.0,82,0.01,,---,0.02,VWS V13.01,2015-02-28 18:11:00,
2015-02-28 10:16:00,55.2,49.8,29.79,WSW,252,1.0,8.0,82,0.01,,---,0.02,VWS V13.01,2015-02-28 18:16:00,
2015-02-28 10:21:00,55.0,48.6,29.80,NW,309,3.0,8.0,79,0.01,,---,0.02,VWS V13.01,2015-02-28 18:21:00,
2015-02-28 10:26:00,54.6,48.9,29.80,NW,315,4.0,8.0,81,0.00,,---,0.02,VWS V13.01,2015-02-28 18:26:00,
2015-02-28 10:31:00,54.4,48.4,29.80,NW,311,3.0,8.0,80,0.00,,---,0.02,VWS V13.01,2015-02-28 18:31:00,
2015-02-28 10:36:00,55.0,49.3,29.80,SSW,198,1.0,4.0,81,0.00,,---,0.02,VWS V13.01,2015-02-28 18:36:00,
2015-02-28 10:41:00,55.2,49.5,29.80,NW,306,2.0,7.0,81,0.00,,---,0.02,VWS V13.01,2015-02-28 18:41:00,
2015-02-28 10:46:00,55.4,49.0,29.80,NNW,339,1.0,7.0,79,0.00,,---,0.02,VWS V13.01,2015-02-28 18:46:00,
2015-02-28 10:51:00,55.5,48.8,29.80,WNW,284,1.0,7.0,78,0.00,,---,0.02,VWS V13.01,2015-02-28 18:51:00,
2015-02-28 10:56:00,55.5,48.8,29.80,NW,316,2.0,8.0,78,0.00,,---,0.02,VWS V13.01,2015-02-28 18:56:00,
2015-02-28 11:01:00,55.6,48.2,29.80,WNW,299,1.0,8.0,76,0.00,,---,0.02,VWS V13.01,2015-02-28 19:01:00,
2015-02-28 11:06:00,55.7,49.0,29.80,West,271,3.0,9.0,78,0.00,,---,0.02,VWS V13.01,2015-02-28 19:06:00,
2015-02-28 11:11:00,56.4,48.9,29.80,NW,306,5.0,9.0,76,0.00,,---,0.02,VWS V13.01,2015-02-28 19:11:00,
2015-02-28 11:16:00,56.5,49.0,29.80,SSW,197,3.0,9.0,76,0.00,,---,0.02,VWS V13.01,2015-02-28 19:16:00,
2015-02-28 11:21:00,57.0,49.9,29.80,SW,230,3.0,9.0,77,0.00,,---,0.02,VWS V13.01,2015-02-28 19:21:00,
2015-02-28 11:26:00,57.5,49.3,29.80,SSW,213,5.0,8.0,74,0.00,,---,0.02,VWS V13.01,2015-02-28 19:26:00,
2015-02-28 11:31:00,57.6,49.0,29.80,SW,229,2.0,8.0,73,0.00,,---,0.02,VWS V13.01,2015-02-28 19:31:00,
2015-02-28 11:36:00,57.6,49.0,29.80,WSW,244,2.0,6.0,73,0.00,,---,0.02,VWS V13.01,2015-02-28 19:36:00,